{"data":{"norad_id":60940,"intl_designator":"2024-155S","name":"STARLINK-32251","alt_names":[],"object_type":"PAYLOAD","status":"ACTIVE","operator":null,"country":"US","launch_date":"2024-08-31","launch_site_code":"AFWTR","launch_vehicle":null,"mission":null,"orbit_class":"UNKNOWN","rcs_meters":null,"size_class":null,"mass_kg":null,"dimensions":null,"purposes":["comms"],"wikipedia_slug":null,"has_3d_model":false,"image_url":null,"decayed_at":null,"tle_current":{"epoch":"2026-09-21T08:35:08.506176Z","epoch_age_seconds":114151,"freshness":"FRESH","line1":"1 60940U 24155S   26264.35773734 -.00005034  00000+0 -13788-3 0  9998","line2":"2 60940  53.1587 297.6141 0001295  87.9823 272.1328 15.34413800116343","mean_motion":15.344138,"eccentricity":0.0001295,"inclination_deg":53.1587,"raan_deg":297.6141,"arg_perigee_deg":87.9823,"mean_anomaly_deg":272.1328,"bstar":-0.00013788,"rev_number":11634,"period_min":93.846914046263,"perigee_km":461.77634050679,"apogee_km":463.5481075058,"semimajor_km":6840.7992240063,"source":"CELESTRAK","updated_at":"2026-09-22T09:00:49.292751Z"}}}